Regional Weather Roundup
Issued by NWS Midland/Odessa, TX

Home | Current Version | Previous Version | Text Only | Print | Product List | Glossary On
Versions: 1 2 3 4 5 6 7 8 9 10 11 12 13 14 15 16 17 18 19 20 21 22 23 24 25 26 27 28 29 30 31 32 33 34 35 36 37 38 39 40 41 42 43 44 45 46 47 48 49 50
000
ASUS44 KMAF 310210
RWRMAF
MIDLAND AREA WEATHER ROUNDUP
NATIONAL WEATHER SERVICE MIDLAND TX
900 PM CDT SAT AUG 30 2014

...IN SOUTHWEST TEXAS AND SOUTHEAST NEW MEXICO...

CITY           SKY/WX    TMP DP  RH WIND       PRES   REMARKS
ALPINE         MOCLDY    83  52  34 SE3       30.11R
ANDREWS        FAIR      84  45  24 SE7       29.98S
ARTESIA        NOT AVBL
BIG SPRING     CLEAR     84  57  39 E6        29.98R
CARLSBAD       CLEAR     88  36  15 S8        29.93R
DRYDEN           N/A     95  59  30 SE12      29.90R
FORT STOCKTON  CLEAR     86  59  39 E15       29.95R
GUAD PASS      CLEAR     79  32  18 E14       30.13S
HOBBS          CLEAR     84  41  21 E12       30.00R
MARFA          MOCLDY    77  46  33 NE7       30.10R
MIDLAND AIRPK  CLEAR     90  54  28 E6        29.96
MIDLAND INTL   CLEAR     89  55  31 E9        29.96R
ODESSA         PTCLDY    89  54  30 E10       29.97R
PECOS          CLEAR     87  46  23 E7        29.91R
PRESIDIO       FAIR      94  51  22 NE5       29.89R
SEMINOLE       CLEAR     83  44  25 SE7       30.00R
SNYDER         CLEAR     84  53  34 E6        29.97R
WINK           CLEAR     91  50  24 E8        29.92R
$$
...OTHER STATIONS IN TEXAS...

CITY           SKY/WX    TMP DP  RH WIND       PRES   REMARKS
ABILENE        CLEAR     88  58  36 SE13      29.94R
AMARILLO       PTCLDY    79  57  46 SE13      29.97R
AUSTIN         PTCLDY    87  71  58 S10       29.91R
BROWNSVILLE    MOCLDY    80  77  90 E6        29.90R
CORPUS CHRISTI MOCLDY    80  75  84 SE12      29.89F
DALLAS FTW     PTCLDY    87  69  54 SE13      29.89R
DEL RIO        CLEAR     95  62  33 E8        29.85R
EL PASO        PTCLDY    90  44  20 S6        29.97R
HOUSTON INT    MOCLDY    81  73  78 S10       29.94R
LUBBOCK        PTCLDY    82  53  36 SE12      29.98R
SAN ANGELO     PTCLDY    85  63  47 SE6       29.94R
SAN ANTONIO    MOCLDY    89  70  53 SE20      29.92R
WACO           CLEAR     85  68  56 SE9       29.90R
WICHITA FALLS  NOT AVBL
$$
...OTHER LOCATIONS IN NEW MEXICO...

CITY           SKY/WX    TMP DP  RH WIND       PRES   REMARKS
ALAMAGORDO     CLEAR     81  46  30 S7        29.99S
ALBUQUERQUE    MOCLDY    83  43  24 S8        30.03S
CANNON AFB     CLOUDY    84  48  28 S8        30.01R
CLOVIS           N/A     81  46  30 S14       30.02R
HOLLOMAN AFB   CLEAR     86  43  21 S6        29.97R
ROSWELL        PTCLDY    86  43  22 S7        29.95R
RUIDOSO        CLEAR     72  39  30 SW9       30.22S
SANTA FE       PTCLDY    76  39  26 SE3       30.10S
TRUTH OR CONSE CLEAR     86  40  19 S8        30.01R
TUCUMCARI      PTCLDY    87  45  23 SW15      29.92S
$$



USA.gov is the U.S. government's official web portal to all federal, state and local government web resources and services.